Temp_Advection
nan nan nan nan nan nan nan nan nan nan nan nan nan nan nan nan nan nan nan nan nan nan nan nan nan nan nan nan nan nan nan nan nan nan nan nan nan nan nan nan nan nan nan nan
nan -1 -2 -0 -0 -0 -0 -0 -1 -1 -0 -0 0 0 0 -1 -1 -1 -2 -2 -2 -2 -1 -1 -1 -0 -0 -0 -0 -0 -1 -1 -0 -0 -0 0 -0 0 0 0 0 -0 0 nan
nan -1 -1 -0 -0 -0 0 -0 -1 -0 -1 -0 -0 0 0 -0 -0 -1 -1 -2 -2 -2 -2 -1 -1 -1 0 -0 -1 -1 -1 -0 -0 -0 -0 -0 -0 0 -0 -0 -0 0 0 nan
nan -1 0 0 -0 -0 -0 -2 -0 0 0 -0 0 1 -0 0 0 0 -0 0 -1 -1 -2 -2 -1 -1 -0 -1 -1 -1 -1 -0 -0 -0 0 -0 -0 -0 -0 0 0 0 0 nan
nan -1 -0 -0 -1 -1 -1 -0 0 1 0 -0 -0 -0 -0 0 0 1 0 1 -1 0 -0 -1 -1 1 -0 -1 -1 -1 -0 -0 -0 0 0 0 -0 -0 0 0 0 0 -0 nan
nan -1 -0 -1 -0 -0 -0 1 0 0 0 -0 -1 0 0 -0 -1 -0 -0 -0 -0 -0 -1 -0 0 0 -1 -2 -1 -0 0 0 0 0 0 0 -0 0 0 0 0 -0 -0 nan
nan -0 -1 -0 1 0 1 0 1 0 0 -0 0 -0 -1 -1 -2 -2 -0 -1 -1 -1 -1 0 -0 -1 -1 -1 -0 -0 0 -0 0 0 0 0 0 0 -0 -0 -0 -0 -0 nan
nan -0 -2 -0 -0 -0 0 0 -0 -0 -0 -0 -0 -1 -1 -0 -0 -1 -0 -2 -1 -0 -0 -0 -0 -0 -1 -0 -0 -0 -0 -0 0 0 0 0 0 0 -0 -0 0 0 -0 nan
nan -3 -0 -0 -0 -0 -0 0 -1 -0 -0 0 -0 -0 -0 0 0 0 -1 -0 -0 -1 -1 -1 0 0 -0 -1 -1 -0 -0 -0 -0 0 0 0 -0 -0 -0 0 0 -0 -0 nan
nan -3 -3 -1 0 0 1 -0 -0 -0 0 -0 -0 -0 0 0 0 0 -0 -0 -2 -2 -1 0 -0 -0 -0 -1 0 0 0 0 0 0 -0 0 1 0 0 0 -0 -0 0 nan
nan -1 -4 -1 -0 1 -0 0 0 -1 0 -0 -0 -1 -0 -0 -0 -0 -1 -2 -2 -1 -0 1 -0 -0 0 1 1 0 1 0 -0 -1 0 1 1 0 0 -0 -0 -0 0 nan
nan -0 -1 -2 -1 -0 0 0 0 0 0 0 -0 -2 -0 0 0 -0 -1 -1 -2 -1 1 0 -0 1 1 1 -1 -1 0 -1 -1 0 1 0 0 0 0 -1 -1 -0 0 nan
nan -0 -1 -3 -0 -0 0 -0 0 -0 -0 -1 -2 -1 -0 0 0 -1 -1 -0 -1 -0 0 -1 0 0 -0 -1 -2 -1 -0 -1 -0 0 0 0 0 0 -0 -1 -1 -0 -0 nan
nan -0 -0 -1 -2 -2 -1 -0 -0 -1 -0 -1 -1 -1 -0 0 0 -1 -1 -1 -0 -1 -1 -1 0 -0 -1 -1 -1 0 -1 -1 -0 -0 -0 -0 -0 -0 -1 -1 -1 -1 -0 nan
nan -0 -1 -2 -3 -2 -4 -2 -0 -0 -1 -0 -0 0 0 -0 0 -0 0 1 1 0 -1 0 0 -1 -1 -1 -1 -1 -2 -1 -0 -0 -1 -1 -0 -0 -0 -1 -1 -1 -0 nan
nan -0 -1 -4 -4 -2 -3 -0 -0 -0 -0 -0 0 -0 -0 -0 0 0 1 2 1 1 -0 0 -0 -1 -3 -3 -2 -1 -2 -0 -0 -1 -1 -0 0 -0 -0 -0 -0 -0 0 nan
nan -0 -0 -1 -1 -0 -0 -2 -1 0 1 1 1 -0 0 -1 -1 -0 1 2 2 1 1 0 -1 -1 -1 0 1 -1 0 0 -1 -0 -0 0 1 0 -0 1 0 -0 0 nan
nan -0 -0 -1 -1 0 0 -1 -1 -2 -3 -2 -1 -1 0 -0 0 0 -1 1 4 3 2 1 0 -0 1 1 0 0 0 -1 0 0 -0 1 0 -0 0 1 0 0 0 nan
nan 0 -0 -0 -1 0 -1 -1 -0 -0 -1 -0 -0 1 0 -0 -3 -2 -0 0 2 3 2 2 2 0 0 0 -0 -0 -1 1 1 -1 -1 0 0 0 0 0 -0 0 0 nan
nan -0 -1 -0 -0 -0 -1 -2 -0 -0 -1 -0 -1 -1 -0 -1 -2 -0 1 1 1 2 3 1 1 1 0 0 -0 -0 0 0 -1 -1 0 0 0 0 -0 0 0 1 0 nan
nan -1 -0 -0 -0 -0 -1 -3 -2 -1 -0 -1 -1 -1 -1 -1 0 1 1 -0 0 1 1 2 2 1 0 -0 0 -0 0 -1 -0 1 0 -0 0 1 1 1 1 1 1 nan
nan -0 -0 -1 -0 -0 -0 -1 -1 -0 -1 -2 -2 -1 -0 1 1 0 -0 0 1 1 1 1 1 1 1 1 0 -0 -0 -0 0 -0 -0 0 0 0 0 0 1 1 1 nan
nan 0 -0 -0 0 0 -0 -0 -0 -1 -1 -1 -1 -3 -1 0 -0 -0 -0 -0 -0 0 0 1 1 1 1 1 1 0 0 0 0 0 0 0 -0 0 0 0 0 1 1 nan
nan -0 -0 -0 0 -1 -2 -0 0 -0 -0 -1 1 0 0 -0 -0 -0 -0 -0 -0 -0 0 0 0 0 -0 -0 0 0 0 -0 -0 -0 -0 -0 0 0 0 0 1 1 1 nan
nan -0 -0 -0 -0 -1 -0 -0 -0 -3 -1 -2 -2 1 -0 -0 -1 -1 -1 -1 -0 -0 -0 0 -0 -0 -0 0 -0 -0 -0 -0 -0 -1 -1 -1 -0 1 1 1 1 1 1 nan
nan nan nan nan nan nan nan nan nan nan nan nan nan nan nan nan nan nan nan nan nan nan nan nan nan nan nan nan nan nan nan nan nan nan nan nan nan nan nan nan nan nan nan nan
Wind_Speed
19 10 16 23 12 6 6 7 10 6 10 25 21 22 20 37 32 33 37 36 39 42 44 45 42 46 42 40 40 41 44 40 33 33 31 30 28 29 24 18 15 14 11 9
4 18 18 6 9 11 14 11 14 15 12 10 17 19 23 26 33 44 39 38 40 39 43 43 42 50 47 47 45 43 45 41 36 30 27 34 33 30 28 23 16 14 14 13
19 7 15 15 14 15 15 16 16 11 6 8 7 6 19 24 32 35 38 47 46 44 49 48 46 48 49 50 50 47 46 42 36 31 28 25 32 34 30 29 24 19 15 15
16 20 19 17 21 18 16 20 18 17 7 5 6 12 9 23 19 24 36 38 42 43 44 48 51 52 51 53 49 51 48 43 38 35 31 29 31 34 35 31 29 23 18 16
17 21 24 22 26 20 19 14 14 17 5 2 15 6 11 28 23 23 28 40 37 46 46 45 52 54 57 53 54 56 49 45 41 38 35 32 30 31 29 27 24 21 22 18
15 19 21 27 17 20 13 11 9 6 4 10 16 6 9 21 29 29 35 37 42 41 44 47 49 51 56 56 55 56 52 48 44 40 37 35 34 30 30 27 25 24 23 20
18 22 23 14 19 14 13 7 7 4 7 9 9 6 13 26 29 35 36 38 44 43 48 51 50 50 52 56 55 56 53 51 47 43 40 38 37 32 31 30 29 25 25 23
15 19 23 21 12 19 14 11 6 9 5 7 6 9 12 12 22 53 59 54 51 47 44 47 53 55 56 59 56 56 55 52 50 46 42 38 37 35 33 31 30 31 26 24
9 16 4 20 19 15 11 18 11 5 2 4 4 5 9 12 7 24 36 39 42 48 48 47 50 57 59 59 61 59 57 54 51 48 44 40 39 38 37 34 32 30 29 27
5 9 12 28 11 20 18 9 9 4 12 5 5 6 10 11 12 14 29 40 48 49 47 47 51 56 57 63 63 60 58 55 52 49 45 42 40 40 39 37 33 32 31 27
9 5 13 4 10 23 4 15 6 7 6 10 4 10 8 11 12 10 20 48 51 53 52 53 49 55 60 61 61 60 58 54 52 48 45 44 43 42 42 41 37 33 30 31
9 6 7 10 12 4 21 8 10 9 10 3 4 12 6 12 12 11 17 46 53 56 55 55 47 55 50 51 56 59 57 55 51 46 47 45 43 40 42 43 41 36 35 34
8 3 8 10 4 3 5 12 10 7 6 10 13 15 6 6 8 20 26 34 53 56 55 56 46 49 50 52 56 57 57 53 49 46 44 43 43 41 40 42 42 40 37 36
9 4 9 8 9 10 5 12 9 17 8 10 11 11 7 15 14 16 18 33 43 52 53 52 49 51 52 56 58 57 55 50 46 46 43 42 42 41 39 37 38 40 38 38
2 8 11 20 27 25 24 12 13 14 14 14 11 7 9 9 12 8 13 29 35 45 51 53 51 49 53 54 56 55 53 49 46 45 43 40 37 37 36 36 36 37 38 38
3 5 15 23 18 18 18 6 7 13 17 6 8 8 8 7 18 8 14 29 31 41 51 54 55 56 57 57 56 56 53 49 46 44 42 38 38 38 38 36 35 35 37 38
5 4 6 6 6 6 5 13 7 6 7 9 11 10 4 8 9 17 11 27 27 30 44 49 53 57 60 58 54 52 51 49 47 44 42 40 39 40 39 38 38 38 37 36
8 9 4 5 8 6 8 20 15 19 21 20 12 10 14 18 25 36 32 31 36 31 24 27 36 39 41 44 48 47 46 47 46 44 41 40 39 37 35 36 36 35 37 37
12 8 4 3 4 4 11 18 13 6 17 22 19 5 17 26 42 30 32 32 33 34 34 34 28 28 38 34 36 38 40 41 43 45 44 42 41 39 36 38 36 32 33 35
11 10 7 4 2 4 13 27 38 4 17 21 23 21 17 13 14 5 27 28 29 30 30 29 30 31 28 19 29 37 40 44 45 44 44 42 41 42 40 38 37 36 37 37
4 7 5 4 3 5 21 29 20 10 5 18 24 24 25 14 8 17 27 30 29 27 27 23 22 22 21 20 17 15 29 36 38 42 42 43 42 41 39 40 39 40 41 41
3 1 4 7 5 5 22 13 8 6 16 26 26 24 25 27 27 29 32 31 30 29 26 25 23 20 14 11 12 12 11 9 13 23 35 39 44 42 39 37 37 38 40 41
5 4 1 3 2 5 4 7 8 16 18 27 28 33 24 22 24 25 26 28 28 29 28 27 22 22 22 13 6 6 3 4 5 6 13 23 28 34 35 36 36 37 37 38
10 19 4 7 4 12 22 17 11 23 27 29 25 27 31 23 21 21 22 23 24 26 27 24 23 20 18 16 11 8 2 3 7 9 11 15 20 21 27 32 35 36 37 37
7 7 10 8 7 18 3 5 23 38 39 36 26 24 22 25 26 21 23 23 22 22 22 22 22 20 15 11 10 9 9 10 10 12 16 18 22 25 27 29 32 35 34 33
13 6 4 4 20 21 30 39 35 31 37 37 31 27 20 19 18 18 18 20 22 20 21 18 15 15 13 9 9 9 11 14 17 17 16 16 17 19 24 26 29 32 33 32
Wind_Direction
196 188 206 213 209 239 252 216 243 250 202 188 206 218 176 178 177 177 185 188 190 192 200 208 206 198 200 205 206 209 204 199 197 204 208 204 198 196 199 201 200 214 228 235
164 217 218 196 196 211 235 246 252 267 266 179 210 218 176 178 184 184 182 190 197 194 199 203 207 206 203 205 208 207 205 202 202 206 212 211 207 203 203 206 211 211 220 231
204 230 204 203 222 218 226 229 246 235 298 293 165 194 167 202 184 186 187 196 192 194 195 200 204 206 206 208 207 209 206 205 207 211 212 210 214 214 211 209 212 216 218 233
224 232 201 206 219 210 222 227 240 255 249 244 203 235 170 185 186 191 194 198 198 194 196 200 207 207 207 212 211 210 209 209 213 216 214 211 208 208 209 208 213 219 221 229
220 203 218 213 213 206 224 231 231 248 224 194 271 223 225 176 181 199 205 210 204 196 195 197 205 209 210 210 213 208 211 212 217 220 222 221 218 216 213 208 206 215 225 232
230 236 206 228 225 225 209 225 244 242 192 242 248 228 243 179 186 202 213 211 211 202 200 202 201 200 205 210 209 207 211 214 219 222 225 227 224 219 217 213 213 216 222 228
228 236 231 212 216 211 223 160 228 260 227 233 219 221 241 181 197 196 209 211 206 203 202 201 200 197 202 207 207 209 211 214 218 222 227 229 227 223 219 215 216 216 217 224
216 231 224 216 208 203 221 196 166 210 207 222 216 207 240 228 191 199 204 203 199 204 201 204 201 198 203 210 210 211 212 215 219 222 227 230 229 225 223 221 220 222 225 227
339 237 218 222 217 191 202 215 185 126 212 173 219 210 269 255 176 187 200 198 201 209 201 207 202 201 202 208 213 215 215 217 220 223 226 229 230 227 226 224 223 224 226 228
321 294 239 234 233 216 202 159 188 178 220 241 262 210 212 227 242 176 192 198 203 209 203 204 199 200 203 211 217 217 220 218 220 222 225 229 231 230 230 229 224 223 223 225
325 257 299 293 214 219 174 205 194 161 162 225 228 245 198 219 231 217 179 195 200 204 206 204 199 202 205 209 213 218 218 220 220 223 227 229 230 231 232 232 229 227 226 224
331 297 289 249 246 299 222 187 185 204 213 199 191 256 208 214 218 227 228 193 198 199 201 205 200 200 200 199 210 218 219 219 222 224 225 229 231 232 233 232 233 229 227 226
8 343 314 308 23 260 209 211 196 175 142 198 219 255 244 249 237 230 232 188 193 197 197 201 197 195 199 199 210 218 220 222 222 224 225 229 231 233 232 233 235 235 232 229
355 271 251 279 305 322 278 224 201 193 196 198 219 251 282 284 285 297 246 188 175 192 192 193 192 194 200 206 211 216 219 221 223 224 224 227 231 234 235 233 234 236 235 232
303 265 261 258 264 272 262 251 209 202 193 196 222 203 247 264 275 261 187 170 167 178 182 187 190 192 201 205 208 215 218 219 222 224 226 227 230 234 237 239 235 235 237 236
232 267 307 288 257 227 242 243 266 211 202 150 190 238 240 252 291 108 118 154 162 171 180 186 188 191 199 207 211 214 217 219 221 224 229 231 232 232 234 237 239 238 237 237
193 262 335 267 314 188 71 356 7 205 166 187 202 227 151 57 351 22 49 107 155 167 182 186 188 191 200 209 213 212 216 219 222 225 229 232 233 234 236 238 239 241 241 241
217 242 223 266 310 148 128 35 35 52 38 14 348 336 112 105 73 53 54 70 89 117 148 179 187 191 196 205 210 214 214 218 222 225 229 233 235 236 237 238 239 242 245 247
207 253 272 263 268 157 21 3 343 357 38 17 4 96 121 108 72 37 50 70 82 92 96 96 122 179 197 200 213 216 219 224 225 228 231 234 235 237 239 241 243 244 246 249
215 279 242 315 336 68 2 337 337 143 39 8 16 29 34 50 79 20 48 61 67 82 94 101 106 116 124 134 203 217 224 225 228 233 236 237 241 243 245 246 248 251 252 255
223 272 237 247 98 76 355 343 358 65 37 24 17 34 39 57 48 56 57 56 57 66 72 88 108 115 118 121 117 163 211 224 234 240 244 246 247 250 254 254 255 253 254 256
43 331 356 340 59 54 350 355 60 308 7 14 7 19 37 43 44 45 48 48 50 55 62 66 81 88 100 122 129 119 133 167 219 238 241 246 246 250 253 254 255 256 255 255
57 22 287 25 184 177 20 320 304 8 12 6 356 360 3 32 35 32 34 34 38 43 52 57 68 77 77 81 112 151 139 191 213 222 229 237 242 247 251 254 255 254 255 254
5 4 35 322 132 1 315 308 299 346 343 337 347 357 18 24 30 21 18 18 21 30 36 45 56 69 73 61 69 83 81 246 263 268 262 248 240 240 244 249 252 253 254 255
8 339 318 287 282 337 10 305 319 315 315 314 323 335 360 20 22 18 10 5 3 11 19 27 37 42 52 55 29 20 349 325 310 295 283 273 259 248 247 248 247 248 250 252
1 339 330 280 285 279 274 288 301 299 303 304 312 319 335 353 6 9 3 355 347 351 2 5 13 20 28 25 22 6 352 344 329 298 282 273 267 261 259 256 248 242 242 247
Height
1458 1467 1466 1457 1466 1468 1469 1472 1475 1461 1453 1468 1469 1470 1475 1483 1493 1495 1496 1502 1503 1504 1510 1519 1523 1527 1532 1536 1540 1543 1548 1552 1556 1559 1561 1564 1566 1570 1572 1574 1577 1579 1581 1583
1458 1456 1448 1455 1460 1465 1466 1471 1468 1457 1451 1457 1459 1463 1466 1478 1477 1478 1486 1494 1496 1500 1505 1511 1517 1523 1527 1529 1533 1538 1543 1548 1552 1555 1558 1561 1565 1568 1572 1573 1575 1577 1580 1582
1448 1440 1446 1450 1455 1460 1460 1466 1464 1464 1452 1448 1450 1463 1472 1479 1477 1479 1481 1478 1481 1484 1490 1501 1509 1514 1521 1523 1525 1531 1537 1542 1547 1551 1555 1558 1563 1566 1569 1570 1572 1575 1578 1580
1439 1436 1440 1445 1448 1449 1463 1446 1453 1455 1465 1482 1446 1481 1465 1469 1474 1473 1473 1476 1477 1479 1482 1490 1499 1507 1511 1515 1521 1525 1532 1538 1542 1546 1550 1553 1555 1558 1561 1565 1569 1572 1575 1578
1426 1429 1435 1439 1432 1436 1442 1443 1450 1450 1464 1467 1460 1472 1450 1455 1472 1466 1466 1466 1470 1471 1475 1480 1485 1494 1502 1509 1515 1520 1526 1532 1536 1541 1545 1549 1551 1554 1559 1563 1567 1570 1573 1575
1418 1420 1421 1421 1427 1432 1435 1444 1448 1450 1462 1479 1460 1465 1455 1456 1455 1457 1453 1457 1458 1464 1469 1476 1481 1489 1495 1502 1508 1515 1520 1525 1530 1535 1539 1543 1547 1550 1555 1559 1562 1566 1569 1572
1418 1414 1413 1415 1427 1428 1435 1451 1476 1486 1480 1481 1454 1466 1443 1435 1438 1440 1444 1450 1452 1455 1459 1465 1475 1482 1488 1493 1499 1507 1513 1518 1524 1529 1533 1538 1542 1547 1550 1554 1557 1561 1565 1568
1423 1429 1407 1403 1414 1424 1431 1441 1472 1486 1485 1474 1450 1460 1434 1417 1421 1423 1430 1433 1442 1448 1453 1461 1465 1473 1479 1484 1491 1499 1505 1511 1517 1523 1527 1532 1537 1542 1546 1549 1553 1557 1560 1564
1474 1411 1393 1398 1400 1408 1423 1431 1432 1459 1457 1470 1449 1433 1421 1412 1417 1422 1431 1438 1442 1443 1447 1452 1458 1465 1470 1476 1482 1489 1497 1504 1510 1515 1521 1526 1530 1535 1539 1543 1548 1553 1557 1560
1476 1463 1396 1388 1396 1397 1400 1411 1439 1450 1468 1478 1453 1441 1432 1418 1410 1416 1421 1427 1429 1435 1440 1446 1451 1456 1464 1467 1474 1482 1490 1496 1502 1510 1515 1519 1524 1529 1534 1538 1543 1547 1551 1555
1478 1469 1415 1395 1394 1393 1406 1405 1412 1424 1448 1453 1469 1431 1406 1405 1400 1401 1407 1412 1419 1426 1433 1437 1442 1448 1455 1460 1468 1475 1483 1491 1497 1503 1508 1513 1518 1523 1527 1531 1537 1541 1546 1550
1475 1469 1456 1406 1381 1383 1385 1401 1409 1424 1443 1443 1446 1417 1384 1388 1389 1390 1393 1401 1405 1412 1422 1430 1435 1441 1451 1457 1463 1469 1476 1483 1489 1496 1501 1506 1512 1517 1520 1524 1529 1535 1539 1544
1479 1469 1465 1412 1393 1385 1392 1388 1391 1406 1416 1433 1433 1406 1382 1382 1384 1383 1379 1383 1392 1402 1412 1421 1431 1439 1445 1452 1457 1463 1469 1475 1482 1489 1495 1500 1504 1509 1513 1518 1522 1528 1533 1537
1479 1476 1470 1453 1418 1417 1399 1387 1388 1390 1412 1416 1413 1397 1388 1379 1378 1369 1362 1367 1379 1390 1401 1413 1422 1431 1437 1443 1450 1456 1462 1469 1475 1482 1487 1492 1497 1501 1506 1512 1516 1520 1525 1530
1483 1474 1464 1445 1425 1415 1406 1383 1377 1388 1388 1401 1398 1400 1387 1380 1373 1363 1361 1363 1373 1383 1393 1403 1414 1423 1431 1438 1445 1451 1457 1462 1468 1474 1479 1484 1490 1496 1500 1504 1508 1513 1517 1521
1480 1469 1459 1433 1395 1391 1392 1371 1370 1373 1375 1385 1390 1394 1376 1375 1375 1363 1361 1361 1369 1377 1388 1396 1404 1413 1423 1429 1436 1443 1450 1456 1462 1466 1471 1478 1483 1488 1492 1496 1500 1505 1509 1513
1474 1467 1463 1430 1389 1377 1388 1392 1372 1365 1372 1379 1394 1385 1375 1381 1386 1377 1368 1364 1369 1377 1385 1391 1398 1404 1412 1421 1429 1438 1444 1451 1456 1461 1466 1471 1476 1480 1485 1489 1494 1496 1500 1506
1458 1460 1456 1425 1400 1401 1395 1392 1385 1386 1395 1394 1389 1380 1378 1387 1388 1384 1382 1378 1378 1383 1390 1395 1401 1408 1415 1421 1427 1434 1442 1447 1451 1456 1461 1466 1470 1474 1479 1482 1486 1490 1494 1496
1446 1450 1449 1422 1402 1376 1386 1398 1406 1409 1417 1409 1398 1377 1382 1382 1373 1391 1393 1390 1391 1392 1395 1398 1402 1407 1414 1422 1426 1433 1439 1444 1448 1451 1454 1458 1463 1468 1473 1475 1479 1484 1488 1490
1442 1441 1441 1422 1409 1406 1423 1406 1383 1389 1423 1415 1408 1400 1393 1384 1399 1412 1406 1401 1402 1398 1400 1403 1405 1408 1412 1419 1423 1429 1434 1438 1441 1444 1448 1454 1458 1461 1464 1469 1473 1477 1480 1483
1449 1435 1422 1415 1409 1422 1430 1410 1393 1421 1445 1427 1421 1416 1412 1412 1417 1414 1409 1406 1406 1404 1403 1406 1407 1410 1414 1419 1422 1426 1431 1434 1437 1443 1446 1449 1452 1454 1458 1462 1466 1470 1472 1476
1442 1444 1442 1431 1423 1437 1438 1425 1434 1450 1441 1432 1428 1424 1421 1418 1417 1412 1408 1409 1407 1406 1405 1407 1409 1412 1414 1417 1421 1426 1430 1434 1436 1438 1442 1445 1448 1451 1454 1457 1460 1462 1465 1467
1449 1451 1450 1454 1449 1444 1442 1442 1442 1442 1436 1435 1433 1427 1423 1419 1416 1412 1413 1414 1413 1410 1408 1410 1411 1414 1416 1418 1421 1424 1428 1431 1434 1437 1439 1441 1444 1447 1449 1452 1454 1456 1458 1460
1448 1447 1454 1452 1441 1441 1436 1438 1434 1432 1432 1435 1435 1431 1425 1420 1416 1416 1416 1415 1414 1412 1411 1412 1412 1414 1417 1420 1422 1424 1427 1430 1432 1433 1435 1437 1439 1441 1444 1445 1448 1450 1452 1453
1468 1464 1460 1448 1442 1438 1431 1435 1437 1428 1429 1429 1434 1433 1425 1420 1418 1418 1416 1417 1417 1416 1414 1412 1411 1416 1418 1419 1421 1422 1425 1427 1428 1430 1430 1431 1433 1435 1437 1439 1440 1442 1444 1446
1463 1461 1456 1449 1446 1449 1442 1437 1438 1436 1424 1424 1423 1417 1419 1421 1420 1420 1421 1420 1419 1418 1417 1416 1419 1421 1421 1420 1419 1419 1420 1422 1423 1425 1427 1427 1427 1428 1429 1431 1433 1435 1437 1439